Radiation Dose at Monitoring Post of Fukushima Daini Nuclear Power Station
Date,Time,MP-1(microSv/h),MP-2(microSv/h),MP-3(microSv/h),MP-4(microSv/h),MP-5(microSv/h),MP-6(microSv/h),MP-7(microSv/h),Wind Direction,Wind Velocity(m/s),Rain
2015/11/23,00:00,0.486,0.275,0.493,0.459,0.442,0.222,0.193,north-northwest,7.3,No
2015/11/23,00:10,0.488,0.276,0.497,0.461,0.445,0.224,0.193,north-northwest,7.5,No
2015/11/23,00:20,0.484,0.275,0.493,0.458,0.442,0.223,0.194,north-northwest,6.6,No
2015/11/23,00:30,0.489,0.275,0.496,0.459,0.444,0.225,0.194,north-northwest,6.6,No
2015/11/23,00:40,0.487,0.277,0.498,0.458,0.443,0.222,0.194,north,8.4,No
2015/11/23,00:50,0.488,0.276,0.495,0.457,0.444,0.222,0.193,north-northwest,8.1,No
2015/11/23,01:00,0.488,0.275,0.498,0.463,0.443,0.223,0.194,north-northwest,7.8,No
2015/11/23,01:10,0.485,0.276,0.494,0.457,0.444,0.224,0.194,north-northwest,7.5,No
2015/11/23,01:20,0.489,0.276,0.499,0.462,0.445,0.223,0.193,north-northwest,7.6,No
2015/11/23,01:30,0.487,0.277,0.494,0.459,0.442,0.223,0.194,north-northwest,7.2,No
2015/11/23,01:40,0.489,0.275,0.498,0.459,0.446,0.223,0.194,north-northwest,7.1,No
2015/11/23,01:50,0.485,0.277,0.496,0.460,0.442,0.223,0.193,north-northwest,7.8,No
2015/11/23,02:00,0.488,0.276,0.495,0.459,0.444,0.224,0.193,north-northwest,7.8,No
2015/11/23,02:10,0.489,0.275,0.497,0.462,0.446,0.223,0.193,north-northwest,7.5,No
2015/11/23,02:20,0.486,0.277,0.493,0.459,0.442,0.224,0.193,north,7.4,No
2015/11/23,02:30,0.488,0.274,0.498,0.462,0.446,0.223,0.194,north-northwest,7.0,No
2015/11/23,02:40,0.484,0.277,0.495,0.459,0.444,0.222,0.193,north-northwest,6.9,No
2015/11/23,02:50,0.490,0.275,0.500,0.461,0.445,0.224,0.194,north-northwest,7.3,No
2015/11/23,03:00,0.487,0.275,0.497,0.461,0.445,0.224,0.194,north-northwest,6.8,No
2015/11/23,03:10,0.488,0.276,0.497,0.459,0.443,0.223,0.193,north-northwest,7.6,No
2015/11/23,03:20,0.485,0.275,0.499,0.463,0.445,0.223,0.194,north-northwest,6.9,No
2015/11/23,03:30,0.485,0.276,0.494,0.458,0.444,0.224,0.193,north,7.0,No
2015/11/23,03:40,0.489,0.275,0.499,0.460,0.445,0.224,0.193,north-northwest,7.5,No
2015/11/23,03:50,0.485,0.276,0.495,0.460,0.444,0.223,0.194,north-northwest,7.5,No
2015/11/23,04:00,0.489,0.275,0.500,0.460,0.443,0.223,0.194,north,6.7,No
2015/11/23,04:10,0.485,0.276,0.497,0.460,0.445,0.225,0.195,north,7.4,No
2015/11/23,04:20,0.488,0.276,0.496,0.458,0.443,0.223,0.194,north,6.6,No
2015/11/23,04:30,0.486,0.275,0.498,0.463,0.446,0.225,0.195,north-northwest,7.7,No
2015/11/23,04:40,0.487,0.276,0.495,0.458,0.445,0.223,0.194,north,7.0,No
2015/11/23,04:50,0.490,0.275,0.497,0.462,0.444,0.224,0.195,north-northwest,6.4,No
2015/11/23,05:00,0.487,0.276,0.495,0.460,0.448,0.225,0.194,north-northwest,7.5,No
2015/11/23,05:10,0.489,0.277,0.497,0.459,0.444,0.224,0.195,north-northwest,7.7,No
2015/11/23,05:20,0.485,0.275,0.497,0.459,0.444,0.225,0.194,north-northwest,7.0,No
2015/11/23,05:30,0.487,0.276,0.498,0.458,0.444,0.223,0.194,north-northwest,8.4,No
2015/11/23,05:40,0.488,0.275,0.497,0.463,0.444,0.224,0.194,north-northwest,7.4,No
2015/11/23,05:50,0.487,0.274,0.496,0.460,0.444,0.223,0.195,north-northwest,8.4,Yes
2015/11/23,06:00,0.490,0.276,0.498,0.462,0.444,0.224,0.196,north-northwest,8.2,Yes
2015/11/23,06:10,0.489,0.279,0.499,0.461,0.444,0.227,0.197,north-northwest,8.1,Yes
2015/11/23,06:20,0.491,0.281,0.500,0.461,0.447,0.228,0.199,north-northwest,7.8,Yes
2015/11/23,06:30,0.494,0.283,0.502,0.464,0.446,0.228,0.198,north-northwest,8.4,Yes
2015/11/23,06:40,0.490,0.279,0.499,0.461,0.447,0.228,0.199,north-northwest,9.2,No
2015/11/23,06:50,0.491,0.280,0.501,0.463,0.446,0.227,0.197,north-northwest,8.7,No
2015/11/23,07:00,0.490,0.280,0.499,0.463,0.444,0.229,0.197,north-northwest,8.2,No
2015/11/23,07:10,0.488,0.278,0.497,0.460,0.444,0.227,0.196,north-northwest,7.5,No
2015/11/23,07:20,0.491,0.279,0.501,0.460,0.444,0.226,0.196,north-northwest,8.3,Yes
2015/11/23,07:30,0.486,0.278,0.495,0.459,0.441,0.227,0.196,north-northwest,9.2,Yes
2015/11/23,07:40,0.489,0.277,0.497,0.459,0.444,0.226,0.194,north-northwest,8.3,Yes
2015/11/23,07:50,0.488,0.278,0.496,0.461,0.443,0.225,0.195,north-northwest,8.5,Yes
2015/11/23,08:00,0.488,0.278,0.496,0.458,0.443,0.227,0.196,north-northwest,8.8,Yes
2015/11/23,08:10,0.489,0.279,0.500,0.462,0.446,0.227,0.197,north-northwest,8.3,Yes
2015/11/23,08:20,0.487,0.280,0.497,0.459,0.444,0.228,0.197,north-northwest,8.7,Yes
2015/11/23,08:30,0.489,0.279,0.498,0.460,0.446,0.230,0.198,north-northwest,7.5,Yes
2015/11/23,08:40,0.491,0.281,0.500,0.463,0.446,0.228,0.198,north-northwest,7.6,Yes
2015/11/23,08:50,0.487,0.283,0.495,0.460,0.445,0.229,0.197,north-northwest,7.6,Yes
2015/11/23,09:00,0.488,0.281,0.499,0.461,0.447,0.231,0.201,north-northwest,8.2,Yes
2015/11/23,09:10,0.489,0.283,0.496,0.460,0.445,0.231,0.201,north-northwest,7.8,Yes
2015/11/23,09:20,0.488,0.283,0.495,0.458,0.445,0.233,0.199,north-northwest,7.0,Yes
2015/11/23,09:30,0.488,0.282,0.498,0.459,0.447,0.233,0.200,north-northwest,6.9,Yes
2015/11/23,09:40,0.486,0.284,0.493,0.458,0.445,0.233,0.200,north-northwest,6.4,Yes
2015/11/23,09:50,0.488,0.283,0.497,0.458,0.445,0.234,0.201,north-northwest,6.8,Yes
2015/11/23,10:00,0.489,0.284,0.493,0.460,0.449,0.234,0.202,north-northwest,7.3,Yes
2015/11/23,10:10,0.485,0.284,0.493,0.458,0.447,0.235,0.201,north-northwest,6.8,Yes
2015/11/23,10:20,0.486,0.282,0.494,0.458,0.446,0.233,0.200,north-northwest,7.6,Yes
2015/11/23,10:30,0.484,0.283,0.491,0.456,0.448,0.233,0.201,north,7.9,Yes
2015/11/23,10:40,0.484,0.283,0.494,0.455,0.446,0.233,0.200,north-northwest,7.4,Yes
2015/11/23,10:50,0.486,0.281,0.492,0.457,0.448,0.232,0.199,north-northwest,8.1,Yes
2015/11/23,11:00,0.482,0.282,0.490,0.455,0.446,0.231,0.198,north-northwest,7.0,Yes
2015/11/23,11:10,0.485,0.280,0.491,0.456,0.444,0.228,0.198,northwest,7.4,Yes
2015/11/23,11:20,0.481,0.280,0.487,0.451,0.443,0.228,0.197,north-northwest,6.8,Yes
2015/11/23,11:30,0.481,0.282,0.490,0.451,0.442,0.229,0.196,north-northwest,7.6,Yes
2015/11/23,11:40,0.482,0.278,0.487,0.453,0.444,0.228,0.197,north-northwest,7.8,Yes
2015/11/23,11:50,0.480,0.279,0.486,0.451,0.444,0.229,0.196,north-northwest,7.8,Yes
2015/11/23,12:00,0.484,0.281,0.492,0.453,0.445,0.230,0.197,north-northwest,8.4,Yes
2015/11/23,12:10,0.482,0.279,0.486,0.452,0.443,0.228,0.197,north-northwest,8.1,Yes
2015/11/23,12:20,0.479,0.279,0.488,0.451,0.444,0.229,0.197,north-northwest,7.2,Yes
2015/11/23,12:30,0.482,0.279,0.489,0.453,0.442,0.229,0.196,north-northwest,6.4,Yes
2015/11/23,12:40,0.481,0.279,0.485,0.450,0.444,0.229,0.196,north-northwest,5.8,Yes
2015/11/23,12:50,0.481,0.279,0.489,0.452,0.444,0.228,0.196,north,5.7,No
2015/11/23,13:00,0.482,0.278,0.485,0.450,0.441,0.226,0.194,north,5.8,No
2015/11/23,13:10,0.479,0.276,0.486,0.447,0.444,0.225,0.193,north,6.3,Yes
2015/11/23,13:20,0.481,0.277,0.488,0.453,0.443,0.226,0.194,north-northwest,7.1,Yes
2015/11/23,13:30,0.479,0.278,0.485,0.451,0.444,0.228,0.196,north,6.8,Yes
2015/11/23,13:40,0.483,0.279,0.491,0.453,0.444,0.228,0.197,north,6.8,Yes
2015/11/23,13:50,0.485,0.281,0.486,0.454,0.445,0.229,0.198,north,7.4,Yes
2015/11/23,14:00,0.481,0.279,0.489,0.452,0.446,0.228,0.197,north,7.8,Yes
2015/11/23,14:10,0.484,0.280,0.490,0.455,0.446,0.227,0.194,north,8.5,Yes
2015/11/23,14:20,0.482,0.279,0.487,0.451,0.443,0.226,0.194,north,8.1,Yes
2015/11/23,14:30,0.481,0.277,0.489,0.452,0.443,0.226,0.195,north,8.4,Yes
2015/11/23,14:40,0.483,0.279,0.487,0.452,0.442,0.223,0.193,north,8.1,Yes
2015/11/23,14:50,0.479,0.276,0.486,0.449,0.441,0.225,0.193,north-northwest,8.3,No
2015/11/23,15:00,0.477,0.275,0.487,0.452,0.443,0.222,0.193,north-northwest,9.0,No
2015/11/23,15:10,0.479,0.275,0.485,0.447,0.441,0.221,0.192,north-northwest,10.0,No
2015/11/23,15:20,0.477,0.276,0.487,0.450,0.439,0.222,0.189,north-northwest,9.5,No
2015/11/23,15:30,0.478,0.274,0.487,0.450,0.440,0.223,0.189,north-northwest,9.2,No
2015/11/23,15:40,0.478,0.275,0.483,0.446,0.440,0.221,0.189,north-northwest,9.6,Yes
2015/11/23,15:50,0.477,0.273,0.487,0.449,0.439,0.221,0.189,north,8.7,Yes
2015/11/23,16:00,0.480,0.274,0.484,0.448,0.438,0.220,0.190,north,8.5,Yes
2015/11/23,16:10,0.474,0.272,0.485,0.447,0.440,0.219,0.189,north,9.3,No
2015/11/23,16:20,0.478,0.272,0.484,0.449,0.438,0.220,0.188,north-northwest,7.3,No
2015/11/23,16:30,0.477,0.273,0.484,0.447,0.438,0.219,0.188,north,8.5,No
2015/11/23,16:40,0.475,0.271,0.485,0.447,0.437,0.219,0.187,north-northwest,8.2,No
2015/11/23,16:50,0.477,0.270,0.484,0.447,0.436,0.219,0.188,north-northwest,7.9,No
2015/11/23,17:00,0.474,0.272,0.484,0.445,0.438,0.218,0.188,north,6.3,No
2015/11/23,17:10,0.477,0.272,0.485,0.448,0.437,0.218,0.187,north,7.9,No
2015/11/23,17:20,0.476,0.271,0.482,0.445,0.437,0.218,0.188,north,7.0,No
2015/11/23,17:30,0.474,0.271,0.488,0.448,0.436,0.219,0.187,north,7.8,No
2015/11/23,17:40,0.478,0.270,0.485,0.448,0.437,0.220,0.187,north,9.2,Yes
2015/11/23,17:50,0.476,0.274,0.485,0.448,0.439,0.219,0.189,north,9.5,Yes
2015/11/23,18:00,0.478,0.273,0.489,0.450,0.439,0.220,0.189,north,7.8,No
2015/11/23,18:10,0.480,0.273,0.485,0.449,0.438,0.221,0.189,north,8.5,No
2015/11/23,18:20,0.477,0.275,0.488,0.449,0.440,0.219,0.189,north-northwest,7.8,Yes
2015/11/23,18:30,0.479,0.273,0.486,0.450,0.439,0.220,0.189,north,7.7,Yes
2015/11/23,18:40,0.479,0.273,0.485,0.449,0.439,0.221,0.190,north-northwest,7.9,Yes
2015/11/23,18:50,0.479,0.275,0.488,0.451,0.440,0.222,0.192,north,7.8,Yes
2015/11/23,19:00,0.481,0.274,0.485,0.450,0.438,0.223,0.190,north,9.2,Yes
2015/11/23,19:10,0.479,0.275,0.488,0.450,0.442,0.222,0.192,north,9.5,Yes
2015/11/23,19:20,0.479,0.275,0.487,0.452,0.440,0.222,0.191,north,7.7,No
2015/11/23,19:30,0.480,0.274,0.485,0.450,0.439,0.222,0.189,north,8.5,No
2015/11/23,19:40,0.478,0.273,0.487,0.451,0.441,0.219,0.189,north,8.3,No
2015/11/23,19:50,0.477,0.273,0.487,0.449,0.437,0.220,0.190,north-northwest,8.8,No
2015/11/23,20:00,0.477,0.270,0.484,0.448,0.436,0.221,0.188,north,9.2,No
2015/11/23,20:10,0.474,0.272,0.486,0.448,0.438,0.218,0.188,north-northwest,7.8,No
2015/11/23,20:20,0.478,0.271,0.484,0.447,0.436,0.218,0.188,north-northwest,8.1,No
2015/11/23,20:30,0.475,0.270,0.485,0.448,0.436,0.219,0.187,north,8.4,No
2015/11/23,20:40,0.477,0.271,0.485,0.448,0.436,0.218,0.188,north,8.9,No
2015/11/23,20:50,0.475,0.270,0.484,0.446,0.437,0.220,0.188,north,8.7,No
2015/11/23,21:00,0.475,0.269,0.487,0.450,0.437,0.218,0.187,north,8.8,No
2015/11/23,21:10,0.476,0.272,0.484,0.446,0.438,0.218,0.187,north,8.1,No
2015/11/23,21:20,0.476,0.270,0.485,0.448,0.434,0.218,0.187,north,9.5,No
2015/11/23,21:30,0.475,0.269,0.487,0.449,0.437,0.218,0.187,north,10.1,No
2015/11/23,21:40,0.477,0.270,0.483,0.446,0.436,0.218,0.187,north,9.5,No
2015/11/23,21:50,0.475,0.270,0.487,0.449,0.436,0.219,0.187,north,9.5,No
2015/11/23,22:00,0.478,0.270,0.484,0.450,0.437,0.218,0.188,north,8.7,No
2015/11/23,22:10,0.476,0.271,0.483,0.448,0.436,0.218,0.188,north-northwest,8.2,No
2015/11/23,22:20,0.477,0.270,0.485,0.448,0.437,0.217,0.188,north-northwest,7.9,No
2015/11/23,22:30,0.478,0.271,0.484,0.449,0.438,0.218,0.187,north,8.8,No
2015/11/23,22:40,0.475,0.270,0.487,0.451,0.437,0.217,0.188,north,9.6,No
2015/11/23,22:50,0.479,0.272,0.486,0.447,0.438,0.218,0.187,north,9.5,No
2015/11/23,23:00,0.477,0.271,0.486,0.448,0.438,0.219,0.187,north,10.3,No
2015/11/23,23:10,0.475,0.269,0.486,0.450,0.439,0.219,0.189,north,9.8,No
2015/11/23,23:20,0.479,0.271,0.484,0.448,0.440,0.220,0.188,north,10.3,No
2015/11/23,23:30,0.474,0.269,0.489,0.450,0.437,0.219,0.188,north,10.3,No
2015/11/23,23:40,0.480,0.270,0.486,0.450,0.437,0.219,0.187,north,9.8,No
2015/11/23,23:50,0.476,0.271,0.487,0.449,0.439,0.219,0.188,north-northwest,9.5,No
